MST,Max TemperatureF,Mean TemperatureF,Min TemperatureF,Max Dew PointF,MeanDew PointF,Min DewpointF,Max Humidity, Mean Humidity, Min Humidity, Max Sea Level PressureIn, Mean Sea Level PressureIn, Min Sea Level PressureIn, Max VisibilityMiles, Mean VisibilityMiles, Min VisibilityMiles, Max Wind SpeedMPH, Mean Wind SpeedMPH, Max Gust SpeedMPH,PrecipitationIn, CloudCover, Events, WindDirDegrees
2013-1-1,28,22,17,13,9,7,70,55,30,30.41,30.27,30.11,,,,20,15,31,0.00,,,250
2013-1-2,27,19,11,10,7,4,71,59,35,30.44,30.36,30.22,,,,23,14,36,0.00,,,235
2013-1-3,28,20,11,9,7,5,72,61,45,30.26,30.21,30.12,,,,24,18,36,0.00,,,246
2013-1-4,35,24,12,15,11,6,70,54,36,30.21,30.10,30.01,,,,17,13,32,0.00,,,247
2013-1-5,30,22,15,14,12,9,71,60,38,30.27,30.13,29.94,,,,15,13,32,0.00,,,244
2013-1-6,31,24,18,20,14,9,75,56,32,29.91,29.81,29.78,,,,15,11,23,0.00,,,250
2013-1-7,35,27,19,17,14,10,74,53,27,29.86,29.65,29.46,,,,16,9,26,0.00,,,244
2013-1-8,33,28,23,18,6,-2,80,38,15,29.90,29.79,29.55,,,,15,9,26,0.00,,,253
2013-1-9,34,28,22,29,24,18,96,86,73,29.71,29.55,29.47,,,,10,6,18,0.12,,,249
2013-1-10,25,16,7,22,13,4,94,87,77,30.21,30.03,29.76,,,,7,4,,0.04,,,88
2013-1-11,12,3,-6,5,-1,-9,88,78,65,30.28,30.22,30.12,,,,15,5,26,0.00,,,249
2013-1-12,14,9,4,5,3,0,84,73,59,30.30,30.24,30.15,,,,10,6,20,0.00,,,242
2013-1-13,16,11,6,4,3,0,79,66,49,30.31,30.25,30.19,,,,17,11,26,0.00,,,252
2013-1-14,24,16,8,13,9,3,72,65,49,30.18,30.04,29.98,,,,22,16,43,0.00,,,252
2013-1-15,43,30,17,18,15,12,68,47,17,30.07,30.04,29.95,,,,21,15,37,0.00,,,245
2013-1-16,44,38,31,19,16,11,44,34,18,30.20,30.09,29.95,,,,15,11,26,0.00,,,252
2013-1-17,49,44,38,23,18,11,47,34,14,30.14,29.96,29.79,,,,24,13,48,0.00,,,255
2013-1-18,45,37,29,24,16,12,80,36,20,30.01,29.80,29.72,,,,26,17,44,0.00,,,264
2013-1-19,44,32,19,24,19,16,91,80,37,30.48,30.24,30.06,,,,10,3,,0.00,,,20
2013-1-20,21,10,0,13,5,-2,89,80,61,30.61,30.52,30.39,,,,7,4,,0.00,,,57
2013-1-21,46,24,2,19,7,0,92,54,10,30.38,30.15,30.00,,,,12,4,22,0.00,,,237
2013-1-22,35,25,15,17,14,12,92,62,35,30.18,30.07,29.99,,,,12,7,21,0.00,,,316
2013-1-23,30,18,7,28,10,5,94,86,69,30.20,30.02,29.68,,,,7,3,23,0.00,,,49
2013-1-24,39,23,7,22,15,12,58,42,25,29.97,29.87,29.64,,,,16,11,30,0.00,,,245
2013-1-25,36,33,30,24,17,13,61,48,31,29.90,29.85,29.80,,,,14,9,31,0.00,,,243
2013-1-26,34,25,16,14,11,8,78,54,24,29.86,29.82,29.76,,,,13,7,21,0.00,,,247
2013-1-27,33,26,20,14,11,5,69,53,25,29.82,29.78,29.74,,,,10,8,20,0.00,,,247
2013-1-28,32,24,17,16,11,3,91,62,19,29.85,29.76,29.68,,,,10,8,23,0.00,,,255
2013-1-29,17,4,-9,14,-5,-12,94,78,60,30.35,30.17,29.86,,,,6,3,,0.04,,,58
2013-1-30,29,11,-7,17,11,2,93,74,47,30.20,30.04,29.88,,,,14,6,25,0.00,,,28
2013-1-31,43,19,-5,23,11,-8,88,62,29,30.24,30.08,29.92,,,,12,4,23,0.00,,,243